WW0K Weather Reports


time (UTC)temp
F
wind
direction
speed
knots
gust
knots
rain 1hr
in
rain 24hr
in
rain mn
in
humidity
%
barometer
mb
20260504173529 83 228 5.2 8.7 0.00 0.00 0.00 27
20260504172536 83 296 6.1 10.4 0.00 0.00 0.00 27
20260504171523 83 307 5.2 7.0 0.00 0.00 0.00 28
20260504170529 82 258 6.1 11.3 0.00 0.00 0.00 28
20260504150546 74 212 3.5 4.3 0.00 0.00 0.00 39
20260504140527 66 184 3.5 6.1 0.00 0.00 0.00 46
20260504130548 55 180 0.9 1.7 0.00 0.00 0.00 66
20260504110527 44 0.0 0.0 0.00 0.00 0.00 81
20260504100527 45 0.0 0.0 0.00 0.00 0.00 77
20260504081521 50 0.0 0.0 0.00 0.00 0.00 62
20260504080528 50 0.0 0.0 0.00 0.00 0.00 61
20260504050527 52 0.0 0.0 0.00 0.00 0.00 59
20260504045533 52 0.0 0.0 0.00 0.00 0.00 55
20260504044521 53 0.0 0.0 0.00 0.00 0.00 55
20260504043527 55 0.0 0.0 0.00 0.00 0.00 53
20260504042533 56 0.0 0.0 0.00 0.00 0.00 48
20260504041541 57 0.0 0.0 0.00 0.00 0.00 45
20260504040527 57 0.0 1.7 0.00 0.00 0.00 44
20260504035533 56 248 0.9 2.6 0.00 0.00 0.00 45
20260504034522 56 248 0.0 1.7 0.00 0.00 0.00 46
20260504033546 55 0.0 0.0 0.00 0.00 0.00 47
20260504032532 56 184 0.9 1.7 0.00 0.00 0.00 47
20260504031521 55 248 0.0 1.7 0.00 0.00 0.00 53
20260504030527 55 0.0 0.0 0.00 0.00 0.00 51
20260504025533 55 0.0 0.0 0.00 0.00 0.00 51
20260504024521 56 0.0 0.0 0.00 0.00 0.00 50
20260504023527 56 0.0 0.0 0.00 0.00 0.00 50
20260504022551 57 0.0 0.0 0.00 0.00 0.00 48
20260504021521 57 0.0 0.0 0.00 0.00 0.00 47
20260504020526 58 0.0 0.0 0.00 0.00 0.00 44
20260504015532 59 0.0 0.0 0.00 0.00 0.00 42
20260504014521 61 0.0 0.0 0.00 0.00 0.00 41
20260504013527 62 0.0 0.0 0.00 0.00 0.00 39
20260504012533 64 0.0 0.0 0.00 0.00 0.00 37
20260504011520 66 0.0 0.0 0.00 0.00 0.00 34
20260504010527 69 0.0 0.0 0.00 0.00 0.00 31
20260504005532 72 0.0 0.0 0.00 0.00 0.00 28
20260504004521 75 0.0 0.0 0.00 0.00 0.00 26
20260504003547 77 0.0 0.0 0.00 0.00 0.00 24
20260504002533 78 243 0.9 2.6 0.00 0.00 0.00 22
20260504001539 80 274 1.7 2.6 0.00 0.00 0.00 21
20260504000527 80 3 1.7 4.3 0.00 0.00 0.00 21
20260503235533 81 267 1.7 4.3 0.00 0.00 0.00 20
20260503234520 82 318 1.7 3.5 0.00 0.00 0.00 21
20260503233529 82 293 2.6 4.3 0.00 0.00 0.00 20
20260503232533 83 266 0.9 3.5 0.00 0.00 0.00 20
20260503231521 80 311 2.6 7.0 0.00 0.00 0.00 21
20260503230527 78 279 2.6 3.5 0.00 0.00 0.00 22
20260503225535 79 265 3.5 6.1 0.00 0.00 0.00 21
20260503224521 79 4 3.5 6.1 0.00 0.00 0.00 21
20260503223527 80 227 1.7 4.3 0.00 0.00 0.00 22
20260503222532 79 354 2.6 4.3 0.00 0.00 0.00 22
20260503221541 80 235 2.6 6.1 0.00 0.00 0.00 22
20260503220527 80 300 2.6 6.1 0.00 0.00 0.00 21
20260503215553 80 317 3.5 7.8 0.00 0.00 0.00 22
20260503214520 79 314 2.6 5.2 0.00 0.00 0.00 22
20260503213546 80 282 3.5 5.2 0.00 0.00 0.00 22
20260503212554 80 338 2.6 4.3 0.00 0.00 0.00 22
20260503211520 80 3 3.5 6.1 0.00 0.00 0.00 22
20260503210529 80 12 3.5 6.1 0.00 0.00 0.00 20
20260503205532 80 336 3.5 7.0 0.00 0.00 0.00 23
20260503204522 80 325 4.3 7.0 0.00 0.00 0.00 22
20260503203526 80 254 4.3 7.0 0.00 0.00 0.00 22
20260503202552 79 286 3.5 7.0 0.00 0.00 0.00 23
20260503201520 80 303 4.3 7.0 0.00 0.00 0.00 23
20260503200526 81 264 3.5 5.2 0.00 0.00 0.00 23
20260503195531 80 291 3.5 7.8 0.00 0.00 0.00 23
20260503194520 79 297 2.6 3.5 0.00 0.00 0.00 25
20260503193525 80 283 3.5 7.0 0.00 0.00 0.00 24
20260503192549 79 252 4.3 8.7 0.00 0.00 0.00 24
20260503191520 78 270 4.3 6.1 0.00 0.00 0.00 27
20260503190525 79 326 2.6 6.1 0.00 0.00 0.00 27
20260503185531 79 298 4.3 8.7 0.00 0.00 0.00 26
20260503184519 79 288 4.3 7.0 0.00 0.00 0.00 26
20260503183524 78 288 3.5 7.0 0.00 0.00 0.00 27
20260503182530 77 297 4.3 7.0 0.00 0.00 0.00 26
20260503181539 77 269 4.3 7.0 0.00 0.00 0.00 27
20260503180545 78 292 4.3 7.8 0.00 0.00 0.00 26
20260503175531 77 9 3.5 5.2 0.00 0.00 0.00 28
20260503174519 78 304 3.5 8.7 0.00 0.00 0.00 28